Wind_Speed
22 22 21 21 22 22 21 20 19 17 17 16 16 16 16 16 16 16 16 16 16 16 17 18 18 19 18 18 18 17 17 17 18 18 18 18 18 18 18 19 18 18 17 17
24 24 24 25 24 24 23 21 20 19 18 16 17 17 17 17 17 17 16 16 16 17 17 18 19 19 19 18 18 17 17 18 18 19 19 19 19 18 19 19 19 18 19 19
27 26 25 26 24 24 23 22 21 20 20 18 18 18 19 19 19 18 17 16 16 17 17 18 19 19 19 18 18 17 17 18 19 19 20 20 20 19 20 20 20 20 20 20
29 28 28 25 24 24 24 23 23 22 20 19 19 19 20 20 20 20 19 17 17 17 18 18 19 20 20 19 19 19 18 18 19 19 19 19 20 21 21 21 21 21 20 21
30 29 28 25 24 24 24 24 24 23 22 21 21 21 21 21 21 22 20 20 20 18 18 18 19 20 20 19 19 19 20 20 20 20 20 20 21 21 22 22 21 21 21 21
30 30 29 26 26 26 26 25 23 24 23 23 23 22 22 22 22 22 22 21 21 19 18 19 19 20 20 20 20 20 20 21 21 20 21 21 22 22 22 22 21 21 21 22
30 30 30 27 27 26 26 26 24 24 24 24 24 24 23 22 22 23 23 22 22 21 20 20 20 20 21 21 21 21 21 22 22 22 22 22 23 23 23 23 22 23 23 23
30 31 30 28 28 27 27 27 26 25 25 25 25 25 25 24 24 25 25 24 23 21 20 20 20 21 22 22 22 22 22 23 23 23 23 23 24 24 24 23 23 24 24 24
31 31 30 29 29 29 29 28 27 27 26 26 26 26 26 26 26 26 26 24 24 22 21 21 21 22 23 23 23 24 24 23 24 24 24 24 24 24 24 24 24 24 24 25
31 31 31 31 30 30 30 29 28 27 28 27 26 26 27 27 26 25 25 26 25 23 23 23 23 24 24 23 24 24 24 24 24 25 25 25 26 25 25 25 25 25 25 25
33 33 32 31 31 30 30 30 29 29 29 29 27 28 28 27 27 27 27 27 26 25 24 24 24 24 24 24 24 25 25 25 25 25 26 26 26 26 26 26 27 27 27 27
34 34 33 32 31 31 31 31 30 30 29 28 29 29 28 28 28 28 28 28 26 26 26 25 24 24 24 25 25 26 26 26 26 26 27 28 28 28 28 28 28 28 28 28
34 34 34 33 33 32 31 30 30 29 29 30 30 29 29 29 29 28 28 27 26 26 27 27 26 25 25 25 25 26 27 27 27 28 28 28 28 29 28 28 28 29 29 29
34 34 33 33 33 32 31 31 31 31 31 31 30 29 28 28 28 28 28 27 27 26 26 27 27 27 26 26 26 27 28 28 29 29 29 29 28 29 29 29 29 29 29 29
33 33 33 33 34 34 33 32 31 31 30 28 28 27 27 27 27 27 27 27 27 27 26 26 27 28 28 27 28 28 28 29 29 29 29 29 29 29 30 29 29 29 29 28
32 31 31 32 33 32 32 31 32 31 30 29 28 27 27 26 26 26 27 27 27 28 27 27 27 27 28 28 28 28 29 29 29 29 29 29 29 29 30 30 30 29 28 28
31 31 31 31 32 32 31 30 30 30 30 30 30 30 29 28 28 28 27 27 27 28 28 28 27 27 28 28 28 29 30 29 29 29 29 30 29 29 29 30 30 30 29 28
31 30 30 31 31 31 30 30 29 29 30 30 30 30 29 29 29 29 28 28 28 27 28 28 28 28 27 27 28 29 29 29 29 30 30 29 29 29 29 29 28 29 29 27
31 30 30 31 31 30 30 30 30 30 30 30 30 29 29 29 29 28 28 28 27 28 28 28 28 28 28 29 29 29 28 29 29 30 30 29 29 29 29 29 28 28 27 27
30 30 30 29 28 28 29 29 30 30 30 30 30 30 29 28 28 28 28 28 28 28 29 29 30 30 29 29 28 28 29 29 29 29 29 29 28 28 27 27 27 26 26 25
27 28 28 27 27 27 27 28 28 28 29 29 29 29 28 28 28 29 29 29 30 30 29 29 29 29 29 28 28 29 28 28 28 28 28 27 27 26 26 26 24 24 24 24
24 25 25 25 26 26 27 28 28 28 27 28 28 28 28 28 28 29 29 29 29 29 29 28 28 28 28 28 28 27 26 26 27 27 27 26 26 26 25 24 23 23 23 23
23 23 24 24 25 26 27 27 27 27 27 26 27 28 29 29 28 29 29 29 29 29 29 29 29 28 28 28 27 26 26 27 26 26 26 26 26 25 25 25 24 23 23 23
21 22 23 24 24 25 25 25 25 26 26 26 26 27 27 27 27 28 28 28 29 29 28 28 28 27 27 27 27 26 26 26 26 26 26 26 26 26 25 24 23 23 24 24
21 22 23 24 24 24 23 23 24 24 25 25 25 25 25 25 25 25 26 27 27 27 27 27 27 27 26 26 26 26 26 26 26 26 26 26 25 25 25 24 23 24 24 24
20 22 23 23 23 23 22 23 23 24 24 24 24 24 24 23 23 24 24 24 25 25 25 25 25 25 25 25 26 26 26 26 26 26 26 25 25 25 24 23 23 23 24 23
19 20 20 20 21 21 21 22 22 22 23 23 23 23 23 23 23 23 23 23 23 23 23 23 24 24 24 24 24 25 25 25 26 26 25 25 24 24 24 24 24 24 23 23
Wind_Direction
243 242 243 250 252 253 260 264 270 274 279 285 289 291 294 299 304 307 308 310 312 313 317 320 321 322 321 322 321 321 321 323 324 323 322 323 318 315 314 312 311 311 308 307
241 244 246 249 252 256 261 264 267 273 278 287 293 290 292 297 298 298 301 306 308 308 311 315 317 319 322 321 318 317 317 320 321 322 322 323 320 317 315 314 312 311 311 309
243 246 249 250 252 255 258 262 266 271 276 282 286 288 289 294 298 300 298 301 305 307 310 313 314 315 317 318 318 315 315 316 318 320 322 322 322 322 321 320 317 313 309 307
244 246 247 252 252 253 255 259 263 265 271 277 282 283 287 292 297 300 299 299 303 305 306 309 312 314 317 317 317 315 314 315 319 320 323 324 322 321 321 319 317 313 309 307
246 247 251 253 253 253 255 257 258 261 266 275 281 282 284 291 294 297 296 297 299 301 301 304 307 311 314 316 316 316 316 316 318 319 321 321 320 319 318 317 316 314 311 310
248 251 253 254 255 255 256 258 259 264 269 273 278 279 284 289 290 291 293 294 295 295 296 300 304 308 311 312 314 314 315 316 317 317 317 317 318 317 316 315 313 313 311 309
247 251 253 255 258 259 259 261 263 265 267 270 273 277 282 284 285 286 288 288 291 292 291 296 300 304 306 307 309 311 312 313 314 315 317 317 317 316 315 314 313 313 311 310
247 251 254 254 256 258 262 263 263 265 267 270 272 276 278 281 284 284 284 284 286 288 289 293 296 300 302 303 305 307 309 311 312 313 314 315 316 316 316 314 313 313 313 311
248 250 253 254 256 260 261 262 263 266 269 271 272 274 277 279 280 281 280 281 284 286 290 292 294 296 298 300 303 305 306 308 310 312 312 312 314 314 314 313 312 312 313 311
247 250 252 254 257 260 262 265 265 268 270 270 272 274 277 279 279 279 281 282 285 286 289 292 292 294 295 296 298 300 303 305 308 309 310 311 311 312 312 311 311 312 312 310
245 249 252 254 256 258 261 264 266 267 270 272 274 275 277 277 279 279 282 284 283 283 285 286 288 290 292 294 297 299 301 303 305 307 307 308 308 308 309 309 309 310 310 310
245 248 251 255 258 259 261 264 267 268 268 272 274 276 276 278 277 279 282 281 281 282 283 285 285 289 290 294 296 297 300 303 305 306 307 306 305 305 306 307 307 308 309 309
248 249 251 255 258 261 260 263 264 267 271 274 273 274 276 277 277 278 279 278 279 281 281 284 286 289 289 291 294 296 299 301 302 303 304 304 305 304 304 305 306 307 308 308
249 250 252 254 256 258 259 262 265 268 273 274 272 273 275 276 275 276 277 277 278 279 280 282 285 287 288 290 293 295 296 298 300 301 301 301 302 303 303 304 306 307 307 307
249 250 252 255 256 257 260 262 265 268 269 272 272 274 275 275 275 274 275 277 278 279 281 283 284 286 286 289 292 293 295 296 297 298 298 298 300 302 303 304 305 305 305 305
248 248 251 255 256 257 257 259 262 265 269 270 271 273 274 274 274 275 275 276 277 279 281 284 285 287 288 289 290 292 294 295 296 297 297 298 300 302 303 304 305 304 304 304
246 247 251 253 256 257 258 261 262 263 266 267 269 271 271 272 275 277 278 277 278 280 281 281 283 285 287 288 290 292 293 295 296 295 296 298 299 301 304 305 305 304 303 303
248 249 251 253 256 256 257 261 263 263 264 267 269 269 270 271 273 275 277 279 279 281 282 283 285 287 289 289 290 291 292 294 295 294 295 296 299 301 302 304 303 302 301 300
250 251 253 254 256 257 258 261 263 263 264 266 270 270 270 271 272 275 276 277 278 280 282 284 286 287 289 290 291 292 292 294 296 296 296 297 299 300 301 302 302 301 302 302
250 251 253 255 257 257 257 258 260 261 262 264 267 268 269 270 271 273 274 276 277 280 282 284 285 286 288 289 288 290 292 294 296 297 298 298 299 299 300 300 300 299 300 301
250 252 254 256 256 256 256 257 259 260 262 264 266 266 267 269 271 272 274 276 277 279 281 282 284 286 287 288 288 290 293 293 295 296 297 298 298 298 299 299 297 296 299 301
250 250 252 253 255 256 256 258 260 262 263 264 265 267 268 269 271 273 275 276 276 278 280 281 283 284 285 287 289 290 291 293 295 295 296 297 297 296 296 296 294 297 299 301
252 252 252 252 254 257 259 260 261 262 264 264 267 269 268 269 271 274 275 276 277 279 279 280 282 283 285 288 289 290 291 292 293 294 295 296 296 297 297 296 295 296 298 301
251 251 250 252 255 259 261 260 261 262 264 265 267 269 270 271 273 274 274 276 277 278 280 280 281 283 285 287 288 289 290 291 293 296 296 297 297 297 297 296 294 296 299 301
253 253 254 256 258 260 261 262 262 263 264 266 267 269 272 274 275 275 276 278 279 280 281 281 281 283 284 285 286 288 289 290 292 294 295 297 298 298 297 296 296 298 300 300
255 255 256 258 259 259 261 262 262 263 265 267 268 268 270 272 274 277 279 279 280 281 281 282 283 284 284 285 286 287 288 290 291 293 294 295 296 297 296 296 298 300 301 300
258 258 258 258 258 259 261 262 264 265 266 267 269 269 270 273 275 277 278 279 281 282 282 283 284 284 284 286 287 289 290 291 293 294 293 294 295 295 295 296 298 301 301 300
Height
5881 5883 5883 5884 5885 5886 5886 5886 5885 5885 5885 5885 5884 5884 5883 5882 5880 5879 5878 5877 5875 5874 5872 5871 5868 5866 5863 5861 5858 5856 5854 5851 5848 5845 5842 5839 5836 5833 5831 5828 5826 5823 5821 5818
5876 5877 5878 5879 5880 5881 5881 5881 5880 5880 5881 5881 5880 5880 5878 5877 5876 5875 5874 5873 5872 5870 5869 5867 5865 5862 5860 5858 5855 5852 5850 5847 5844 5841 5838 5835 5832 5829 5826 5824 5822 5819 5816 5814
5871 5872 5873 5874 5876 5876 5876 5876 5876 5876 5877 5876 5876 5875 5874 5873 5872 5870 5869 5868 5867 5866 5865 5863 5861 5859 5856 5854 5851 5848 5846 5843 5840 5837 5834 5831 5828 5824 5822 5820 5817 5814 5812 5809
5865 5867 5867 5871 5870 5870 5871 5871 5871 5871 5871 5871 5871 5870 5869 5869 5867 5866 5865 5864 5863 5862 5861 5859 5857 5854 5852 5849 5847 5844 5842 5839 5836 5833 5830 5827 5823 5820 5818 5815 5813 5810 5807 5805
5858 5859 5861 5863 5864 5864 5864 5865 5865 5866 5866 5866 5865 5864 5864 5864 5863 5862 5861 5860 5858 5857 5856 5854 5853 5850 5848 5845 5843 5840 5837 5834 5831 5828 5825 5822 5819 5816 5813 5810 5807 5805 5802 5800
5851 5852 5854 5858 5858 5858 5859 5858 5859 5860 5860 5860 5860 5859 5859 5859 5858 5857 5856 5855 5853 5852 5851 5849 5848 5845 5843 5841 5838 5835 5832 5830 5826 5823 5820 5817 5814 5811 5808 5805 5802 5799 5797 5794
5844 5845 5847 5849 5850 5851 5853 5854 5854 5854 5854 5854 5854 5854 5854 5853 5852 5852 5850 5849 5848 5847 5846 5844 5842 5840 5838 5835 5833 5830 5828 5825 5822 5818 5815 5812 5809 5806 5803 5800 5797 5794 5791 5788
5837 5837 5841 5842 5843 5845 5845 5846 5847 5847 5848 5848 5848 5848 5847 5847 5846 5845 5844 5843 5841 5840 5839 5838 5836 5834 5832 5830 5827 5825 5822 5819 5816 5813 5810 5807 5804 5801 5797 5794 5791 5788 5785 5782
5830 5832 5833 5834 5835 5836 5837 5838 5839 5840 5841 5841 5841 5841 5840 5840 5839 5838 5836 5835 5834 5833 5832 5831 5830 5829 5827 5824 5821 5819 5816 5813 5811 5808 5805 5802 5799 5795 5792 5789 5786 5782 5779 5776
5821 5822 5824 5826 5827 5828 5829 5831 5831 5832 5833 5834 5834 5833 5833 5832 5831 5830 5829 5828 5827 5826 5825 5824 5823 5822 5820 5817 5815 5812 5810 5807 5804 5802 5799 5796 5793 5789 5786 5783 5780 5776 5773 5770
5813 5815 5816 5818 5819 5821 5822 5823 5824 5825 5825 5826 5826 5825 5825 5824 5823 5822 5821 5820 5820 5819 5818 5816 5815 5813 5811 5809 5807 5805 5803 5800 5798 5795 5792 5789 5786 5783 5779 5776 5773 5770 5766 5763
5805 5807 5809 5811 5812 5813 5814 5815 5815 5816 5817 5817 5817 5817 5816 5816 5816 5815 5814 5813 5812 5811 5809 5807 5806 5805 5804 5801 5800 5798 5796 5793 5791 5788 5785 5782 5779 5776 5772 5769 5766 5762 5759 5756
5797 5799 5801 5802 5803 5804 5806 5806 5806 5807 5808 5808 5808 5808 5808 5808 5808 5807 5806 5805 5804 5803 5801 5800 5798 5797 5796 5794 5793 5791 5788 5786 5783 5781 5778 5775 5771 5768 5765 5762 5758 5755 5751 5748
5788 5790 5791 5793 5795 5796 5797 5797 5798 5799 5799 5799 5799 5799 5800 5800 5799 5799 5798 5797 5796 5795 5794 5792 5791 5790 5788 5787 5785 5783 5781 5778 5776 5773 5770 5767 5764 5761 5757 5754 5751 5747 5744 5740
5779 5780 5783 5784 5785 5786 5788 5789 5789 5790 5790 5790 5790 5791 5791 5791 5791 5790 5790 5789 5788 5786 5786 5785 5783 5782 5780 5779 5777 5775 5773 5770 5768 5765 5762 5759 5756 5753 5750 5746 5743 5740 5736 5732
5769 5771 5773 5774 5776 5777 5778 5780 5781 5781 5782 5783 5783 5783 5784 5783 5783 5782 5781 5781 5780 5779 5778 5777 5776 5774 5772 5771 5769 5767 5764 5762 5759 5757 5754 5751 5748 5745 5742 5738 5735 5731 5728 5725
5759 5762 5763 5765 5766 5767 5769 5770 5771 5773 5774 5775 5775 5775 5776 5776 5775 5775 5774 5773 5772 5772 5770 5769 5767 5766 5764 5763 5761 5759 5757 5754 5752 5749 5746 5744 5740 5737 5734 5730 5727 5723 5720 5717
5750 5752 5754 5755 5756 5758 5760 5761 5762 5764 5766 5767 5767 5768 5768 5768 5767 5767 5766 5766 5764 5763 5762 5761 5759 5758 5756 5754 5753 5751 5749 5746 5744 5741 5738 5735 5732 5729 5726 5722 5719 5716 5713 5709
5741 5744 5746 5747 5748 5750 5751 5753 5754 5756 5757 5758 5758 5759 5759 5759 5759 5759 5758 5757 5756 5755 5754 5753 5751 5750 5749 5747 5745 5742 5740 5737 5735 5732 5729 5726 5723 5720 5717 5714 5711 5708 5704 5701
5733 5735 5737 5739 5741 5742 5743 5744 5746 5747 5748 5749 5750 5750 5750 5750 5750 5750 5750 5749 5748 5747 5746 5744 5743 5741 5740 5738 5735 5733 5731 5729 5726 5724 5721 5718 5715 5712 5709 5706 5703 5700 5697 5694
5725 5727 5729 5731 5733 5734 5736 5737 5738 5739 5740 5740 5740 5741 5742 5742 5742 5741 5741 5741 5740 5739 5737 5736 5734 5733 5731 5729 5727 5725 5723 5721 5718 5715 5713 5710 5707 5704 5701 5698 5695 5693 5690 5687
5717 5719 5721 5723 5725 5726 5727 5729 5730 5731 5732 5732 5732 5733 5733 5733 5733 5733 5732 5731 5731 5729 5728 5727 5726 5724 5722 5720 5718 5716 5714 5712 5710 5707 5704 5702 5699 5696 5694 5691 5688 5686 5683 5680
5710 5712 5714 5716 5717 5718 5720 5721 5722 5723 5723 5723 5723 5723 5724 5724 5724 5724 5723 5723 5722 5720 5719 5718 5717 5715 5714 5712 5710 5708 5706 5704 5702 5699 5697 5694 5691 5689 5686 5683 5681 5679 5676 5673
5704 5705 5707 5708 5710 5711 5712 5713 5714 5714 5715 5716 5716 5715 5715 5715 5715 5715 5715 5714 5713 5711 5710 5709 5708 5706 5705 5703 5702 5700 5698 5696 5693 5691 5689 5686 5683 5681 5678 5676 5673 5671 5668 5666
5697 5698 5700 5701 5702 5703 5704 5705 5706 5706 5707 5708 5708 5708 5707 5707 5707 5706 5705 5704 5703 5702 5701 5700 5699 5697 5696 5695 5693 5692 5690 5688 5686 5683 5681 5678 5676 5673 5671 5668 5666 5663 5660 5658
5690 5692 5693 5694 5695 5696 5697 5697 5698 5698 5699 5699 5699 5699 5699 5699 5698 5697 5696 5695 5694 5693 5692 5691 5690 5688 5687 5686 5684 5683 5681 5679 5677 5675 5673 5671 5668 5666 5663 5660 5658 5655 5653 5650
5684 5685 5685 5686 5687 5688 5689 5689 5690 5690 5690 5690 5691 5691 5691 5691 5690 5690 5688 5687 5686 5685 5684 5683 5681 5680 5679 5677 5676 5674 5673 5671 5669 5667 5664 5662 5660 5658 5655 5653 5650 5648 5646 5643